{"data":{"norad_id":62313,"epoch":"2026-05-24T19:50:09.680352Z","epoch_age_seconds":100045,"freshness":"FRESH","line1":"1 62313U 24239N   26144.82650093  .00010318  00000+0  36001-3 0  9990","line2":"2 62313  53.1584 187.2883 0001162  88.7836 271.3298 15.30199064 81223","mean_motion":15.30199064,"eccentricity":0.0001162,"inclination_deg":53.1584,"raan_deg":187.2883,"arg_perigee_deg":88.7836,"mean_anomaly_deg":271.3298,"bstar":0.00036001,"rev_number":8122,"period_min":94.105403269283,"perigee_km":474.42150431282,"apogee_km":476.01422398325,"semimajor_km":6853.354864148,"source":"CELESTRAK","updated_at":"2026-05-25T13:38:19.649611Z"}}